GONETS M 16 (M26)

Satellite information

Favourite Embed

Satellite Type and Status

PAYLOADIN ORBIT

Key statistics

Satellite GONETS M 16 (M26) at a glance.

Uptime

2187

Days in orbit

Revolutions

≈ 12.4

Per day

Orbit

LEO

Low Earth Orbit

Inclination

82.5

Latest

Satellite identification and parameters

Extended collection of information and parameters for GONETS M 16 (M26).

Object identification

Identified? True

Debris? False

Object name: GONETS M 16 (M26)

International designator: 2019-096C

Object number (NORAD): 44907

Object ID (CCSDS): 44907

Country: COMMONWEALTH OF INDEPENDENT STATES (CIS)

Current information (Y/N): Y

RCS size: LARGE

Orbital parameters

Period: 115.859 minutes

Inclination: 82.5184 deg

SMA: 7872.533 km

Apoapsis: 1502.764 km

Periapsis: 1486.032 km

RAAN: 194.5752 deg

Eccentricy: 0.00106269

Argument of periapsis: 246.2931 deg

Mean anomaly: 113.7034 deg

Mean motion: 12.42885325 rev/day

Mean motion (dot): 0.00000005 rev/day2

B* drag term: -0.000034281388 1/REarth

Two-line elements (TLE)

Creation date: Dec. 21, 2025, 3:42 a.m.

Reference frame: TEME

Reference center: EARTH

Epoch: Dec. 20, 2025, 11:08 p.m. UTC

TLE line 0: 0 GONETS M 16 (M26)

TLE line 1: 1 44907U 19096C 25354.96397742 .00000005 00000-0 -34281-4 0 9993

TLE line 2: 2 44907 82.5184 194.5752 0010627 246.2931 113.7034 12.42885325271492

Live tracking on map

Real-time ground track for satellite GONETS M 16 (M26).

In-orbit conjunctions

There are no conjunctions computed for GONETS M 16 (M26), at the moment. Check back to stay up to date, as we update our databases every day.

Go to all conjunctions

Associated space launch

Gonets-M are an upgraded version of Gonets satellites, derived from military communications system Strela-3. Gonets-M constellation is tasked with monitoring ecological and industrial objects, providing communication and data transmission services, covering also the remote areas like the Far North region. Gonets-M satellites share the ride with the Blits-M microsatellite, which is a geodesic satellite tasked with determining precise orbit parameters for GLONASS satellites.

GONETS M 16 (M26) was lifted into orbit during the mission ‘Rokot/Briz-KM | Gonets-M24, Gonets-M25, Gonets-M26 & Blits-M’, on board a Rokot/Briz-KM space rocket.

The launch took place on Dec. 26, 2019, 11:11 p.m. from 133/3 (133L).

For more information about the launch, click the button.

Launch to space Rokot/Briz-KM | Gonets-M24, Gonets-M25, Gonets-M26 & Blits-M
Rokot/Briz-KM | Gonets-M24, Gonets-M25, Gonets-M26 & Blits-M

Agency: N/A

Status: Launch Successful

Launch date: Dec. 26, 2019, 11:11 p.m. UTC

Rocket: Rokot/Briz-KM

Launch pad: 133/3 (133L)

Location: Plesetsk Cosmodrome, Russian Federation

...

Latest news about this satellite

News about space launch
Rokot conducts final launch – carries three Gonets-M satellites to orbit

News about space launch
Russia launches final Rockot with trio of communications satellites

News about space launch
Russia retires Rockot launcher after liftoff with four satellites


Newsletter sign-up

Weekly statistics, charts and insights to help you stay on top of the space industry.